Location: La Brionne
(46.1728°N, 1.7849°E)
Time: 01:57:19
(UTC+00:00)

Cosmos 2219 Rocket - Pass Details

Date: 31 October 2021
Orbit: 827 x 848 km, 71.0° (Epoch: 26 November)

Event Time Altitude Azimuth Distance (km) Brightness Sun altitude
Exits shadow 04:57:48 23° 245° (WSW) 1,732 3.3 -16.8°
Drops below altitude 10° 05:01:20 10° 207° (SSW) 2,464 4.4 -16.2°
Sets 05:04:13 0° 194° (SSW) 3,395 5.2 -15.7°
